Flag for China Weather past 2 weeks in Shanghai, Shanghai Municipality, China

Now
54 °F

Sunny.


Feels Like: 49 °F
Forecast: 42 / 54 °F
Wind: 17 mph from South

Location: Shanghai Hongqiao Airport

Current Time: Dec 23, 2014 at 12:01:29 PM

Latest Report: Dec 23, 2014 at 11:30 AM


Visibility: 10 mi

Pressure: 30.24 "Hg

Humidity: 47%

Dew point: 34 °F

Location of ShanghaiLocation

Historic Weather in Shanghai — Graph

°F

Shanghai temperature yesterday

Maximum temperature yesterday: 46 °F (at 12:00 PM)
Minimum temperature yesterday: 28 °F (at 6:30 AM)
Average temperature yesterday: 39 °F

Past Weeks' High & Low Weather Summary

 TemperatureHumidityPressure
High54 °F (Dec 10, 10:00 AM)93% (Dec 10, 8:30 PM)30.60 "Hg (Dec 10, 8:30 PM)
Low28 °F (Dec 18, 5:30 AM)17% (Dec 17, 12:00 PM)30.18 "Hg (Dec 15, 1:00 PM)
Average42 °F56%30.41 "Hg
* Reported Dec 8 10:00 AM — Dec 23 10:30 AM, Shanghai, Weather by CustomWeather, © 2014

Note: Actual official high and low records may vary slightly from our data, if they occured in-between our weather recording intervals... More about our weather records

Advertising

Shanghai weather history for previous 24 hours

 ConditionsComfort  
Time TempWeatherWind HumidityBarometerVisibility
10:30 AM
Dec 23
52 °FSunny.17 mph47%30.30 "Hg10 mi
10:00 AM48 °FSunny.13 mph50%30.30 "Hg10 mi
9:30 AM48 °FPassing clouds.10 mph50%30.30 "HgN/A
9:00 AM46 °FSunny.8 mph50%30.33 "Hg10 mi
8:30 AM45 °FSunny.6 mph53%30.33 "Hg10 mi
8:00 AM43 °FSunny.6 mph57%30.33 "Hg10 mi
7:30 AM41 °FPassing clouds.6 mph57%30.33 "HgN/A
7:00 AM39 °FSunny.6 mph56%30.33 "Hg10 mi
6:30 AM39 °FClear.8 mph52%30.30 "Hg10 mi
6:00 AM39 °FClear.6 mph52%30.30 "Hg10 mi
5:30 AM39 °FClear.6 mph48%30.30 "Hg10 mi
5:00 AM39 °FClear.6 mph48%30.33 "Hg10 mi
4:30 AM39 °FClear.6 mph48%30.33 "Hg10 mi
4:00 AM39 °FClear.6 mph52%30.33 "Hg10 mi
3:30 AM39 °FClear.6 mph52%30.33 "Hg10 mi
3:00 AM39 °FClear.6 mph52%30.33 "Hg10 mi
2:30 AM39 °FClear.6 mph52%30.33 "Hg10 mi
2:00 AM39 °FClear.3 mph52%30.33 "Hg10 mi
1:30 AM39 °FClear.3 mph52%30.33 "Hg10 mi
1:00 AM39 °FClear.3 mph52%30.33 "Hg10 mi
12:30 AM41 °FClear.6 mph49%30.33 "Hg10 mi
12:00 AM39 °FClear.6 mph52%30.33 "Hg10 mi
11:30 PM
Dec 22
39 °FClear.6 mph52%30.36 "Hg10 mi
11:00 PM39 °FClear.6 mph52%30.39 "Hg10 mi
10:30 PM39 °FClear.6 mph52%30.39 "Hg10 mi
10:00 PM39 °FClear.6 mph52%30.39 "Hg10 mi
9:30 PM39 °FClear.6 mph52%30.39 "Hg10 mi
9:00 PM39 °FClear.3 mph48%30.39 "Hg10 mi
8:30 PM39 °FClear.6 mph42%30.39 "Hg10 mi
8:00 PM41 °FPassing clouds.3 mph36%30.39 "HgN/A
7:30 PM43 °FPassing clouds.6 mph34%30.39 "HgN/A
7:00 PM41 °FClear.1 mph31%30.39 "Hg10 mi
6:30 PM43 °FClear.1 mph26%30.39 "Hg10 mi
6:00 PM43 °FPassing clouds.3 mph26%30.39 "HgN/A
5:30 PM43 °FPassing clouds.3 mph26%30.39 "HgN/A
5:00 PM43 °FPassing clouds.3 mph26%30.39 "HgN/A
4:30 PM45 °FPassing clouds.6 mph25%30.39 "HgN/A
4:00 PM46 °FPassing clouds.3 mph23%30.39 "HgN/A
3:30 PM46 °FPassing clouds.6 mph23%30.39 "HgN/A
3:00 PM46 °FPassing clouds.3 mph23%30.39 "HgN/A
2:30 PM46 °FSunny.3 mph23%30.39 "Hg10 mi
2:00 PM46 °FPassing clouds.3 mph23%30.39 "HgN/A
1:30 PM46 °FPassing clouds.6 mph23%30.39 "HgN/A
1:00 PM46 °FPassing clouds.3 mph23%30.39 "HgN/A
12:30 PM46 °FPassing clouds.6 mph23%30.39 "HgN/A
12:00 PM46 °FPassing clouds.6 mph25%30.42 "HgN/A
Weather by CustomWeather, © 2014

See weather overviewHow to use our weather pages